Location: Moscow
(55.7500°N, 37.5830°E)
Time: 14:26:39
(UTC+03:00)

Vanguard 1 - Pass Details

Date: 30 November 2021
Orbit: 652 x 3830 km, 34.2° (Epoch: 25 January)

Event Time Altitude Azimuth Distance (km) Brightness Sun altitude
Exits shadow 07:10:42 - 266° (W) 6,907 13.8 -10.8°
Reaches altitude 10° 07:15:38 10° 256° (WSW) 5,946 13.6 -10.1°
Maximum altitude 07:24:51 17° 224° (SW) 4,514 13.3 -8.9°
Drops below altitude 10° 07:31:51 10° 188° (S) 4,320 13.6 -8.1°
Sets 07:36:13 0° 169° (S) 4,782 14.2 -7.5°
